Regional Weather Roundup
Issued by NWS

Current Version | Previous Version | Text Only | Print | Product List | Glossary On
Versions: 1 2 3 4 5 6 7 8 9 10 11 12 13 14 15 16 17 18 19 20 21 22 23 24 25 26 27 28 29 30 31 32 33 34 35 36 37 38 39 40 41 42 43 44 45 46 47 48 49 50
697
ASUS44 KLIX 131708
RWRLA
LOUISIANA WEATHER ROUNDUP
NATIONAL WEATHER SERVICE NEW ORLEANS LA
1100 AM CST FRI DEC 13 2019

NOTE: "FAIR" INDICATES FEW OR NO CLOUDS BELOW 12,000 FEET WITH NO
      SIGNIFICANT WEATHER AND/OR OBSTRUCTIONS TO VISIBILITY.
      SKY/WX - SKY CONDITION AND SIGNIFICANT WEATHER.
      TMP - AIR TEMPERATURE.    DP   - DEWPOINT TEMPERATURE.
      RH  - RELATIVE HUMIDITY.  PRES - PRESSURE.
      HX  - HEAT INDEX.         WCI  - WIND CHILL INDEX.

*  THESE STATIONS ARE NOT NWS OR FAA STATIONS AND ARE NOT UNDER
   NWS QUALITY CONTROL.

LAZ040-048-061>063-065-066-069-131800-
SOUTHEAST LOUISIANA

CITY           SKY/WX    TMP DP  RH WIND       PRES   REMARKS
N.O. INTL ARPT FOG       55  53  93 N5        29.96F VSB 1/16
N.O. LAKEFRONT FOG       54  52  93 N6        29.96F VSB 1/4
N.O. DOWNTOWN* FOG       54  53  97 N3        29.97F VSB 3/4
RESERVE*       FOG       56  53  90 MISG      29.96F VSB 1
SLIDELL        FOG       54  53  97 N6        29.95F VSB 1/2
BATON ROUGE    CLOUDY    54  51  90 CALM      29.96F FOG
BOOTHVILLE*    CLOUDY    58  57  97 N3        29.94F VSB 1/4
BELLE CHASSE*  FOG       55  55 100 N6        29.95F VSB 1/4
BOGALUSA*      CLOUDY    56  53  92 N5        29.97F VSB 3/4
GALLIANO*      FOG       56  55  94 N6        29.94F VSB 1/4
NEW ROADS*     CLOUDY    54  52  94 CALM      29.97F
GONZALES*      CLOUDY    56  56  99 CALM      29.95F FOG
HAMMOND*       CLOUDY    54  54 100 N3        29.96F FOG
HOUMA*         FOG       55  55 100 N6        29.96F VSB 1/4
PORT FOURCHON* FOG       59  59 100 NE8       29.94F VSB 0

$$

LAZ041-044-053-054-131800-
SOUTHWEST LOUISIANA

CITY           SKY/WX    TMP DP  RH WIND       PRES   REMARKS
LAKE CHARLES   CLOUDY    65  55  70 S6        29.95F
LAFAYETTE      CLOUDY    56  52  86 CALM      29.96F
PATTERSON      CLOUDY    56  55  97 E6        29.96F
SALT POINT       N/A     56  54  93 CALM      29.94F
NEW IBERIA     CLOUDY    58  56  93 NE5       29.97F FOG
CHENAULT AIRPK PTSUNNY   63  55  77 CALM      29.96F

$$

LAZ027-028-131800-
CENTRAL LOUISIANA

CITY           SKY/WX    TMP DP  RH WIND       PRES   REMARKS
FORT POLK      CLOUDY    61  51  69 CALM      29.93F
ALEXANDRIA INT CLOUDY    55  51  86 CALM      29.96S
ALEXANDRIA     CLOUDY    57  52  83 SE3       29.96F

$$

LAZ001-002-131800-
NORTHWEST LOUISIANA

CITY           SKY/WX    TMP DP  RH WIND       PRES   REMARKS
SHREVEPORT     MOSUNNY   61  48  62 S8        29.92F
BARKSDALE AFB  PTSUNNY   57  46  67 S5        29.92F
DTN SHREVEPORT MOSUNNY   59  46  62 S6        29.93F

$$

LAZ014-016-131800-
NORTHEAST LOUISIANA

CITY           SKY/WX    TMP DP  RH WIND       PRES   REMARKS
MONROE         CLOUDY    51  50  96 CALM      29.99S FOG
TALLULAH       CLOUDY    52  48  86 SE5       29.97F

$$





USA.gov is the U.S. government's official web portal to all federal, state and local government web resources and services.